| time (UTC) | temp C | wind direction | speed KPH | gust KPH | rain 1hr cm | rain 24hr cm | rain mn cm | humidity % | barometer mb |
| 20260507202216 | 15 | 0 | 16.1 | 22.5 | 0.00 | 0.00 | 0.00 | 45 | 1008.3 |
| 20260507201216 | 16 | 248 | 19.3 | 25.7 | 0.00 | 0.00 | 0.00 | 43 | 1008.6 |
| 20260507200216 | 16 | 0 | 22.5 | 30.6 | 0.00 | 0.00 | 0.00 | 45 | 1008.8 |
| 20260507195216 | 16 | 0 | 20.9 | 29.0 | 0.00 | 0.00 | 0.00 | 48 | 1009.0 |
| 20260507194216 | 16 | 248 | 25.7 | 37.0 | 0.00 | 0.00 | 0.00 | 45 | 1009.2 |
| 20260507193216 | 16 | 0 | 22.5 | 30.6 | 0.00 | 0.00 | 0.00 | 45 | 1009.4 |
| 20260507192216 | 16 | 0 | 22.5 | 33.8 | 0.00 | 0.00 | 0.00 | 47 | 1009.7 |
| 20260507191237 | 15 | 0 | 24.1 | 35.4 | 0.00 | 0.00 | 0.00 | 47 | 1010.0 |
| 20260507190216 | 15 | 203 | 27.4 | 35.4 | 0.00 | 0.00 | 0.00 | 46 | 1010.1 |
| 20260507185216 | 15 | 0 | 20.9 | 32.2 | 0.00 | 0.00 | 0.00 | 43 | 1010.0 |
| 20260507184216 | 15 | 0 | 25.7 | 41.8 | 0.00 | 0.00 | 0.00 | 43 | 1010.1 |
| 20260507183216 | 15 | 225 | 29.0 | 41.8 | 0.00 | 0.00 | 0.00 | 40 | 1010.2 |
| 20260507182216 | 15 | 0 | 17.7 | 27.4 | 0.00 | 0.00 | 0.00 | 41 | 1010.1 |
| 20260507181215 | 14 | 0 | 12.9 | 19.3 | 0.00 | 0.00 | 0.00 | 41 | 1010.5 |
| 20260507180216 | 15 | 0 | 17.7 | 32.2 | 0.00 | 0.00 | 0.00 | 37 | 1010.6 |
| 20260507175216 | 15 | 0 | 19.3 | 25.7 | 0.00 | 0.00 | 0.00 | 39 | 1010.8 |
| 20260507174216 | 15 | 0 | 17.7 | 27.4 | 0.00 | 0.00 | 0.00 | 38 | 1011.1 |
| 20260507173216 | 15 | 0 | 16.1 | 22.5 | 0.00 | 0.00 | 0.00 | 38 | 1011.3 |
| 20260507172216 | 15 | 0 | 24.1 | 37.0 | 0.00 | 0.00 | 0.00 | 39 | 1011.4 |
| 20260507171216 | 14 | 0 | 12.9 | 20.9 | 0.00 | 0.00 | 0.00 | 38 | 1011.7 |
| 20260507170216 | 15 | 0 | 17.7 | 35.4 | 0.00 | 0.00 | 0.00 | 39 | 1012.0 |
| 20260507165216 | 14 | 180 | 16.1 | 25.7 | 0.00 | 0.00 | 0.00 | 39 | 1012.0 |
| 20260507164238 | 13 | 0 | 14.5 | 22.5 | 0.00 | 0.00 | 0.00 | 37 | 1012.1 |
| 20260507163238 | 13 | 225 | 12.9 | 27.4 | 0.00 | 0.00 | 0.00 | 37 | 1012.3 |
| 20260507162219 | 13 | 225 | 8.0 | 12.9 | 0.00 | 0.00 | 0.00 | 40 | 1012.5 |
| 20260507161238 | 13 | 203 | 11.3 | 14.5 | 0.00 | 0.00 | 0.00 | 40 | 1012.7 |
| 20260507160217 | 12 | 225 | 6.4 | 9.7 | 0.00 | 0.00 | 0.00 | 41 | 1012.8 |
| 20260507155238 | 12 | 203 | 9.7 | 14.5 | 0.00 | 0.00 | 0.00 | 41 | 1012.9 |
| 20260507154238 | 12 | 158 | 8.0 | 16.1 | 0.00 | 0.00 | 0.00 | 39 | 1013.2 |
| 20260507153217 | 12 | 180 | 3.2 | 8.0 | 0.00 | 0.00 | 0.00 | 40 | 1013.1 |
| 20260507152218 | 12 | 0 | 11.3 | 16.1 | 0.00 | 0.00 | 0.00 | 39 | 1013.4 |
| 20260507151218 | 11 | 248 | 4.8 | 6.4 | 0.00 | 0.00 | 0.00 | 43 | 1013.5 |
| 20260507150218 | 11 | 293 | 6.4 | 9.7 | 0.00 | 0.00 | 0.00 | 42 | 1013.8 |
| 20260507145217 | 11 | 225 | 6.4 | 9.7 | 0.00 | 0.00 | 0.00 | 44 | 1013.8 |
| 20260507144217 | 10 | 0 | 14.5 | 17.7 | 0.00 | 0.00 | 0.00 | 45 | 1014.0 |
| 20260507143258 | 10 | 248 | 9.7 | 14.5 | 0.00 | 0.00 | 0.00 | 47 | 1014.2 |
| 20260507142217 | 10 | 225 | 11.3 | 17.7 | 0.00 | 0.00 | 0.00 | 48 | 1014.3 |
| 20260507141217 | 9 | 203 | 6.4 | 8.0 | 0.00 | 0.00 | 0.00 | 52 | 1014.3 |
| 20260507140217 | 8 | 203 | 8.0 | 14.5 | 0.00 | 0.00 | 0.00 | 54 | 1014.4 |
| 20260507135218 | 7 | 203 | 6.4 | 9.7 | 0.00 | 0.00 | 0.00 | 57 | 1014.3 |
| 20260507134217 | 7 | 225 | 4.8 | 6.4 | 0.00 | 0.00 | 0.00 | 60 | 1014.2 |
| 20260507133218 | 6 | 225 | 6.4 | 9.7 | 0.00 | 0.00 | 0.00 | 64 | 1014.5 |
| 20260507132218 | 6 | 203 | 3.2 | 3.2 | 0.00 | 0.00 | 0.00 | 66 | 1014.7 |
| 20260507131217 | 6 | 225 | 3.2 | 4.8 | 0.00 | 0.00 | 0.00 | 68 | 1014.7 |
| 20260507130217 | 5 | 203 | 4.8 | 6.4 | 0.00 | 0.00 | 0.00 | 68 | 1014.7 |
| 20260507125217 | 5 | 248 | 4.8 | 9.7 | 0.00 | 0.00 | 0.00 | 68 | 1014.6 |
| 20260507124217 | 5 | 225 | 3.2 | 4.8 | 0.00 | 0.00 | 0.00 | 71 | 1014.6 |
| 20260507123217 | 4 | 203 | 4.8 | 6.4 | 0.00 | 0.00 | 0.00 | 76 | 1014.5 |
| 20260507122218 | 3 | 225 | 3.2 | 4.8 | 0.00 | 0.00 | 0.00 | 79 | 1014.3 |
| 20260507121217 | 2 | 270 | 1.6 | 4.8 | 0.00 | 0.00 | 0.00 | 81 | 1014.2 |
| 20260507120217 | 2 | 248 | 3.2 | 4.8 | 0.00 | 0.00 | 0.00 | 82 | 1014.2 |
| 20260507115237 | 1 | 248 | 1.6 | 3.2 | 0.00 | 0.00 | 0.00 | 82 | 1014.1 |
| 20260507114217 | 0 | 0.0 | 0.0 | 0.00 | 0.00 | 0.00 | 82 | 1014.1 | |
| 20260507113217 | 0 | 0.0 | 1.6 | 0.00 | 0.00 | 0.00 | 82 | 1014.0 | |
| 20260507112217 | 0 | 225 | 1.6 | 3.2 | 0.00 | 0.00 | 0.00 | 81 | 1013.8 |
| 20260507111217 | 0 | 225 | 1.6 | 3.2 | 0.00 | 0.00 | 0.00 | 81 | 1013.9 |
| 20260507110217 | 0 | 225 | 1.6 | 1.6 | 0.00 | 0.00 | 0.00 | 81 | 1013.8 |
| 20260507105258 | 0 | 225 | 1.6 | 3.2 | 0.00 | 0.00 | 0.00 | 80 | 1013.8 |
| 20260507104217 | 0 | 225 | 1.6 | 3.2 | 0.00 | 0.00 | 0.00 | 80 | 1013.8 |
| 20260507103217 | 0 | 225 | 1.6 | 3.2 | 0.00 | 0.00 | 0.00 | 80 | 1013.8 |
| 20260507102217 | 0 | 225 | 1.6 | 3.2 | 0.00 | 0.00 | 0.00 | 79 | 1013.8 |
| 20260507101217 | 0 | 225 | 1.6 | 3.2 | 0.00 | 0.00 | 0.00 | 79 | 1013.9 |
| 20260507100217 | 0 | 0.0 | 1.6 | 0.00 | 0.00 | 0.00 | 79 | 1013.8 | |
| 20260507095217 | 0 | 225 | 1.6 | 1.6 | 0.00 | 0.00 | 0.00 | 78 | 1014.0 |
| 20260507094217 | 0 | 225 | 1.6 | 1.6 | 0.00 | 0.00 | 0.00 | 78 | 1014.0 |
| 20260507093237 | 0 | 203 | 1.6 | 3.2 | 0.00 | 0.00 | 0.00 | 76 | 1013.9 |
| 20260507092218 | 0 | 203 | 1.6 | 3.2 | 0.00 | 0.00 | 0.00 | 75 | 1013.9 |
| 20260507091237 | 0 | 0.0 | 1.6 | 0.00 | 0.00 | 0.00 | 74 | 1013.9 | |
| 20260507090338 | 0 | 0.0 | 1.6 | 0.00 | 0.00 | 0.00 | 74 | 1013.9 | |
| 20260507085217 | 0 | 0.0 | 0.0 | 0.00 | 0.00 | 0.00 | 73 | 1013.9 | |
| 20260507084237 | 0 | 0.0 | 0.0 | 0.00 | 0.00 | 0.00 | 73 | 1014.0 | |
| 20260507083216 | 0 | 0.0 | 0.0 | 0.00 | 0.00 | 0.00 | 72 | 1013.9 | |
| 20260507082216 | 0 | 0.0 | 1.6 | 0.00 | 0.00 | 0.00 | 72 | 1013.9 | |
| 20260507081217 | 0 | 0.0 | 0.0 | 0.00 | 0.00 | 0.00 | 71 | 1013.9 | |
| 20260507080217 | 1 | 0.0 | 1.6 | 0.00 | 0.00 | 0.00 | 71 | 1014.0 | |
| 20260507075217 | 1 | 203 | 1.6 | 3.2 | 0.00 | 0.00 | 0.00 | 71 | 1014.1 |
| 20260507074217 | 1 | 0.0 | 0.0 | 0.00 | 0.00 | 0.00 | 70 | 1014.0 | |
| 20260507073217 | 1 | 0.0 | 0.0 | 0.00 | 0.00 | 0.00 | 70 | 1014.2 | |
| 20260507072217 | 1 | 203 | 1.6 | 3.2 | 0.00 | 0.00 | 0.00 | 70 | 1014.2 |
| 20260507071216 | 1 | 0.0 | 0.0 | 0.00 | 0.00 | 0.00 | 70 | 1014.3 | |
| 20260507070216 | 2 | 0.0 | 1.6 | 0.00 | 0.00 | 0.00 | 69 | 1014.3 | |
| 20260507065217 | 2 | 203 | 1.6 | 3.2 | 0.00 | 0.00 | 0.00 | 68 | 1014.3 |
| 20260507064216 | 2 | 0.0 | 0.0 | 0.00 | 0.00 | 0.00 | 68 | 1014.3 | |
| 20260507063237 | 2 | 203 | 1.6 | 3.2 | 0.00 | 0.00 | 0.00 | 67 | 1014.4 |
| 20260507062237 | 2 | 203 | 1.6 | 1.6 | 0.00 | 0.00 | 0.00 | 66 | 1014.4 |
| 20260507061217 | 2 | 203 | 3.2 | 3.2 | 0.00 | 0.00 | 0.00 | 66 | 1014.5 |
| 20260507060216 | 2 | 203 | 1.6 | 3.2 | 0.00 | 0.00 | 0.00 | 64 | 1014.6 |
| 20260507055216 | 2 | 203 | 1.6 | 1.6 | 0.00 | 0.00 | 0.00 | 63 | 1014.6 |
| 20260507054217 | 3 | 0.0 | 0.0 | 0.00 | 0.00 | 0.00 | 62 | 1014.4 | |
| 20260507053237 | 3 | 0.0 | 0.0 | 0.00 | 0.00 | 0.00 | 62 | 1014.5 | |
| 20260507052217 | 3 | 293 | 1.6 | 3.2 | 0.00 | 0.00 | 0.00 | 60 | 1014.5 |
| 20260507051216 | 3 | 293 | 1.6 | 1.6 | 0.00 | 0.00 | 0.00 | 59 | 1014.5 |
| 20260507050217 | 4 | 0.0 | 1.6 | 0.00 | 0.00 | 0.00 | 59 | 1014.5 | |
| 20260507045217 | 4 | 0.0 | 0.0 | 0.00 | 0.00 | 0.00 | 58 | 1014.5 | |
| 20260507044217 | 5 | 293 | 1.6 | 1.6 | 0.00 | 0.00 | 0.00 | 56 | 1014.5 |
| 20260507043217 | 5 | 0.0 | 1.6 | 0.00 | 0.00 | 0.00 | 56 | 1014.6 | |
| 20260507042217 | 5 | 0.0 | 1.6 | 0.00 | 0.00 | 0.00 | 55 | 1014.5 | |
| 20260507041217 | 5 | 270 | 3.2 | 4.8 | 0.00 | 0.00 | 0.00 | 54 | 1014.5 |
| 20260507040258 | 6 | 315 | 1.6 | 1.6 | 0.00 | 0.00 | 0.00 | 54 | 1014.5 |
| 20260507035217 | 6 | 293 | 3.2 | 4.8 | 0.00 | 0.00 | 0.00 | 53 | 1014.5 |
| 20260507034237 | 6 | 293 | 1.6 | 3.2 | 0.00 | 0.00 | 0.00 | 52 | 1014.5 |
| 20260507033217 | 6 | 315 | 1.6 | 3.2 | 0.00 | 0.00 | 0.00 | 51 | 1014.6 |
| 20260507032217 | 6 | 315 | 3.2 | 4.8 | 0.00 | 0.00 | 0.00 | 50 | 1014.7 |
| 20260507031217 | 7 | 293 | 3.2 | 6.4 | 0.00 | 0.00 | 0.00 | 49 | 1014.6 |
| 20260507030217 | 7 | 293 | 6.4 | 11.3 | 0.00 | 0.00 | 0.00 | 48 | 1014.5 |
| 20260507025216 | 7 | 315 | 4.8 | 6.4 | 0.00 | 0.00 | 0.00 | 48 | 1014.4 |
| 20260507024217 | 7 | 270 | 9.7 | 12.9 | 0.00 | 0.00 | 0.00 | 47 | 1014.5 |
| 20260507023217 | 7 | 293 | 6.4 | 12.9 | 0.00 | 0.00 | 0.00 | 47 | 1014.3 |
| 20260507022237 | 7 | 293 | 6.4 | 11.3 | 0.00 | 0.00 | 0.00 | 47 | 1014.2 |
| 20260507021237 | 7 | 293 | 8.0 | 11.3 | 0.00 | 0.00 | 0.00 | 46 | 1014.0 |
| 20260507020217 | 7 | 293 | 11.3 | 17.7 | 0.00 | 0.00 | 0.00 | 46 | 1013.8 |
| 20260507015217 | 8 | 293 | 8.0 | 12.9 | 0.00 | 0.00 | 0.00 | 45 | 1013.8 |
| 20260507014217 | 8 | 293 | 6.4 | 8.0 | 0.00 | 0.00 | 0.00 | 44 | 1013.7 |
| 20260507013237 | 8 | 315 | 8.0 | 12.9 | 0.00 | 0.00 | 0.00 | 44 | 1013.7 |
| 20260507012237 | 8 | 270 | 8.0 | 14.5 | 0.00 | 0.00 | 0.00 | 42 | 1013.7 |
| 20260507011217 | 8 | 293 | 6.4 | 11.3 | 0.00 | 0.00 | 0.00 | 42 | 1013.5 |
| 20260507010217 | 8 | 293 | 6.4 | 11.3 | 0.00 | 0.00 | 0.00 | 41 | 1013.4 |
| 20260507005216 | 9 | 270 | 12.9 | 17.7 | 0.00 | 0.00 | 0.00 | 41 | 1013.4 |
| 20260507004217 | 10 | 270 | 11.3 | 14.5 | 0.00 | 0.00 | 0.00 | 40 | 1013.3 |
| 20260507003216 | 10 | 270 | 16.1 | 24.1 | 0.00 | 0.00 | 0.00 | 40 | 1013.2 |
| 20260507002217 | 10 | 293 | 14.5 | 19.3 | 0.00 | 0.00 | 0.00 | 40 | 1013.2 |
| 20260507001217 | 10 | 270 | 14.5 | 22.5 | 0.00 | 0.00 | 0.00 | 39 | 1013.1 |
| 20260507000216 | 10 | 270 | 11.3 | 19.3 | 0.00 | 0.00 | 0.00 | 39 | 1012.9 |
| 20260506235217 | 10 | 270 | 24.1 | 32.2 | 0.00 | 0.00 | 0.00 | 40 | 1012.8 |
| 20260506234217 | 11 | 293 | 20.9 | 29.0 | 0.00 | 0.00 | 0.00 | 39 | 1012.8 |
| 20260506233216 | 11 | 270 | 16.1 | 25.7 | 0.00 | 0.00 | 0.00 | 39 | 1012.6 |
| 20260506232237 | 11 | 293 | 19.3 | 33.8 | 0.00 | 0.00 | 0.00 | 38 | 1012.5 |
| 20260506231217 | 11 | 270 | 16.1 | 27.4 | 0.00 | 0.00 | 0.00 | 38 | 1012.5 |
| 20260506230257 | 11 | 270 | 20.9 | 30.6 | 0.00 | 0.00 | 0.00 | 38 | 1012.5 |
| 20260506225216 | 12 | 270 | 22.5 | 30.6 | 0.00 | 0.00 | 0.00 | 37 | 1012.2 |
| 20260506224216 | 12 | 270 | 24.1 | 30.6 | 0.00 | 0.00 | 0.00 | 38 | 1012.3 |
| 20260506223237 | 12 | 248 | 14.5 | 19.3 | 0.00 | 0.00 | 0.00 | 39 | 1012.2 |
| 20260506222216 | 12 | 270 | 16.1 | 24.1 | 0.00 | 0.00 | 0.00 | 38 | 1012.1 |
| 20260506221216 | 12 | 248 | 14.5 | 24.1 | 0.00 | 0.00 | 0.00 | 38 | 1012.2 |
| 20260506220217 | 12 | 270 | 12.9 | 16.1 | 0.00 | 0.00 | 0.00 | 37 | 1012.1 |
| 20260506215216 | 12 | 270 | 19.3 | 29.0 | 0.00 | 0.00 | 0.00 | 38 | 1011.9 |
| 20260506214217 | 12 | 248 | 19.3 | 29.0 | 0.00 | 0.00 | 0.00 | 38 | 1011.9 |
| 20260506213216 | 13 | 248 | 25.7 | 38.6 | 0.00 | 0.00 | 0.00 | 37 | 1012.0 |
| 20260506212217 | 13 | 293 | 20.9 | 25.7 | 0.00 | 0.00 | 0.00 | 37 | 1011.9 |
| 20260506211216 | 13 | 248 | 22.5 | 30.6 | 0.00 | 0.00 | 0.00 | 36 | 1011.8 |
| 20260506210216 | 13 | 0 | 19.3 | 29.0 | 0.00 | 0.00 | 0.00 | 35 | 1011.8 |
| 20260506205216 | 13 | 248 | 12.9 | 25.7 | 0.00 | 0.00 | 0.00 | 38 | 1011.8 |
| 20260506204237 | 13 | 270 | 14.5 | 20.9 | 0.00 | 0.00 | 0.00 | 36 | 1011.9 |
| 20260506203216 | 13 | 248 | 12.9 | 25.7 | 0.00 | 0.00 | 0.00 | 37 | 1011.9 |